Location: Poughquag
(41.6090°N, 73.6820°W)
Time: 10:44:58
(UTC-05:00)

SR - Pass Details

Date: 11 December 2023
Orbit: 574 x 868 km, 66.7° (Epoch: 25 February)

Event Time Altitude Azimuth Distance (km) Brightness Sun altitude
Rises 18:34:20 0° 329° (NNW) 3,441 ? -23.4°
Reaches altitude 10° 18:36:52 10° 330° (NNW) 2,480 ? -23.9°
Maximum altitude 18:42:39 88° 59° (ENE) 820 ? -25.0°
Enters shadow 18:44:16 48° 148° (SSE) 1,041 ? -25.3°
Drops below altitude 10° 18:48:00 10° 150° (SSE) 2,307 - -26.0°
Sets 18:50:18 0° 151° (SSE) 3,185 - -26.4°
